West Memphis, AR

8:06 PM CDT on June 27, 2017 (GMT -0500)
West Memphis Municipal

Weather History for KAWM - January, 2014

Change the Weather History Date:

Monday, January 6, 2014

  Actual Average Record
Temperature  
Mean Temperature 14 °F -  
Max Temperature 17 °F 46 °F 67 °F (1982)
Min Temperature 10 °F 30 °F 10 °F (2014)
Degree Days  
Heating Degree Days 52    
Moisture  
Dew Point 11 °F    
Average Humidity 100    
Maximum Humidity 100    
Minimum Humidity 100    
Precipitation  
Precipitation 0.00 in - - ()
Sea Level Pressure  
Sea Level Pressure 30.56 in    
Wind  
Wind Speed 10 mph (NNW)    
Max Wind Speed 14 mph    
Max Gust Speed 25 mph    
Visibility 10 miles    
Events      
Averages and records for this station are not official NWS values.
T = Trace of Precipitation, MM = Missing Value Source: NWS Daily Summary

Daily Weather History Graph

Daily Weather History Graph

Search for Another Location

Airport or City:

Trip Planner

Search our weather history database for the weather conditions in past years. The results will help you decide how hot, cold, wet, or windy it might be!

Date:

Astronomy

Jan. 06, 2014 Rise Set
Actual Time 7:09 AM CST 5:04 PM CST
Civil Twilight 6:41 AM CST 5:31 PM CST
Nautical Twilight 6:10 AM CST 6:03 PM CST
Astronomical Twilight 5:39 AM CST 6:34 PM CST
Moon 10:39 AM CST (1/6) 11:21 PM CST (1/6)
Length of Visible Light 10h 50m
Length of Day
9h 54m
Waxing Crescent, 35% of the Moon is Illuminated
Jan 6
Waxing Crescent
Jan 7
First Quarter
Jan 15
Full
Jan 23
Last Quarter
Jan 30
New

Hourly Weather History & Observations

Time (CST) Temp. Windchill Dew Point Humidity Pressure Visibility Wind Dir Wind Speed Gust Speed Precip Events Conditions
12:53 AM 17.1 °F 3.6 °F - N/A% 30.39 in 10.0 mi NNW 12.7 mph 24.2 mph N/A   Clear
1:53 AM 16.0 °F 2.3 °F - N/A% 30.43 in 10.0 mi NNW 12.7 mph 21.9 mph N/A   Clear
2:53 AM 14.0 °F 1.2 °F - N/A% 30.46 in 10.0 mi NNW 10.4 mph 25.3 mph N/A   Clear
3:53 AM 12.9 °F -0.9 °F - N/A% 30.48 in 10.0 mi NNW 11.5 mph 23.0 mph N/A   Clear
4:53 AM 12.0 °F -2.0 °F - N/A% 30.50 in 10.0 mi NNW 11.5 mph 19.6 mph N/A   Clear
5:53 AM 10.9 °F -3.4 °F - N/A% 30.52 in 10.0 mi NNW 11.5 mph 23.0 mph N/A   Clear
6:53 AM 10.0 °F -3.7 °F - N/A% 30.55 in 10.0 mi North 10.4 mph 19.6 mph N/A   Clear
7:53 AM 10.0 °F -4.5 °F - N/A% 30.57 in 10.0 mi NNW 11.5 mph 19.6 mph N/A   Clear
8:53 AM 10.9 °F -3.4 °F 10.9 °F 100% 30.59 in 10.0 mi NNW 11.5 mph 19.6 mph N/A   Mostly Cloudy
9:53 AM 12.9 °F -2.2 °F - N/A% 30.61 in 10.0 mi NNW 13.8 mph 19.6 mph N/A   Clear
10:53 AM 12.9 °F 0.7 °F - N/A% 30.61 in 10.0 mi NNW 9.2 mph 20.7 mph N/A   Clear
11:53 AM 14.0 °F 1.2 °F - N/A% 30.59 in 10.0 mi NW 10.4 mph 21.9 mph N/A   Partly Cloudy
12:53 PM 15.1 °F 0.5 °F - N/A% 30.57 in 10.0 mi NNW 13.8 mph 20.7 mph N/A   Mostly Cloudy
1:53 PM 15.1 °F 1.1 °F - N/A% 30.57 in 10.0 mi NW 12.7 mph 18.4 mph N/A   Partly Cloudy
2:53 PM 15.1 °F 2.5 °F - N/A% 30.57 in 10.0 mi NW 10.4 mph 23.0 mph N/A   Partly Cloudy
3:53 PM 15.1 °F 2.5 °F - N/A% 30.57 in 10.0 mi NW 10.4 mph 18.4 mph N/A   Clear
4:53 PM 14.0 °F 5.1 °F - N/A% 30.57 in 10.0 mi NW 5.8 mph 17.3 mph N/A   Clear
5:53 PM 14.0 °F 6.5 °F - N/A% 30.58 in 10.0 mi Variable 4.6 mph - N/A   Clear
6:53 PM 12.9 °F 6.9 °F - N/A% 30.58 in 10.0 mi NW 3.5 mph - N/A   Clear
7:53 PM 12.9 °F - - N/A% 30.60 in 10.0 mi Calm Calm - N/A   Clear
8:53 PM 12.0 °F - - N/A% 30.63 in 10.0 mi Calm Calm - N/A   Clear
9:53 PM 10.9 °F 2.9 °F - N/A% 30.64 in 10.0 mi North 4.6 mph - N/A   Clear
10:53 PM 10.9 °F -1.8 °F - N/A% 30.65 in 10.0 mi North 9.2 mph 17.3 mph N/A   Clear
11:53 PM 10.0 °F -1.9 °F - N/A% 30.64 in 10.0 mi North 8.1 mph - N/A   Clear